Theta_e
320 320 321 321 321 321 321 321 320 321 321 322 322 322 321 321 321 324 318 323 324 331 331 329 326 323 323 321 324 326 315 314 314 316 319 324 323 324 325 325 326 329 329 336 343
319 319 320 320 320 320 320 320 320 320 321 321 321 321 321 321 324 322 329 337 338 338 326 323 318 320 317 319 321 320 317 314 318 318 318 321 321 323 322 322 324 329 335 339 339
318 319 320 320 319 319 319 320 320 320 320 321 321 321 321 323 325 322 335 335 336 334 324 323 321 318 315 319 319 321 316 318 318 317 318 318 319 323 321 320 323 325 332 334 334
318 318 319 319 319 319 319 319 319 320 320 320 320 320 321 327 315 323 338 339 338 324 324 319 318 314 313 315 320 315 320 319 318 317 316 316 319 319 321 323 327 329 335 332 330
317 317 318 318 318 318 318 319 318 318 318 319 319 320 323 322 322 329 338 336 325 323 318 317 315 314 313 317 317 316 318 319 318 318 318 317 316 317 320 326 328 332 334 331 329
317 317 317 317 317 318 318 317 317 318 320 319 320 320 323 315 331 325 323 323 321 319 317 318 316 317 315 314 315 318 317 317 319 319 319 316 317 318 321 326 327 331 332 332 331
316 316 316 316 317 317 317 317 316 319 322 321 321 325 321 317 330 330 322 321 320 319 314 318 319 315 316 314 318 316 313 318 319 320 318 320 315 316 322 325 327 329 332 332 332
316 316 316 316 316 317 317 317 317 322 321 321 322 328 317 324 332 328 323 320 321 319 318 320 320 317 315 318 315 312 313 310 317 319 319 319 312 319 324 324 324 329 331 331 332
316 315 315 315 316 316 316 315 319 323 323 323 328 326 314 321 324 325 322 317 318 318 318 318 318 314 315 310 308 310 305 307 310 318 317 318 314 321 325 325 323 327 330 331 332
316 314 314 314 315 315 314 315 322 321 325 328 324 318 318 314 324 322 323 320 315 314 314 314 314 311 311 309 301 305 306 307 308 313 314 313 315 318 321 321 322 323 326 329 331
315 314 314 314 314 314 317 325 321 319 321 317 315 314 315 324 326 322 321 317 314 312 308 312 308 306 308 310 310 308 307 307 310 312 310 311 311 314 318 318 319 320 322 326 330
315 314 314 313 313 313 318 318 316 318 312 317 316 315 317 321 317 320 322 313 310 306 310 310 306 311 311 310 308 307 305 305 308 311 310 310 310 314 316 316 318 319 320 322 327
313 313 313 313 312 319 322 320 324 322 314 315 315 315 315 318 315 316 319 316 311 308 309 308 310 310 308 307 305 306 305 306 306 310 311 309 307 310 314 317 318 320 322 322 323
313 313 313 311 314 323 323 324 325 322 310 311 312 313 315 317 313 321 322 317 314 309 310 309 312 308 307 306 308 304 310 308 307 306 302 311 301 309 312 313 317 319 320 321 323
312 312 311 309 318 320 323 325 325 321 300 313 313 318 316 314 315 314 323 319 313 311 311 308 308 307 306 307 309 307 311 308 308 307 307 307 304 308 312 310 313 316 318 322 325
312 312 311 318 321 323 324 324 322 305 297 308 312 309 310 313 312 316 316 320 318 313 313 311 314 311 310 310 310 312 308 309 309 307 300 306 305 306 309 312 314 318 319 322 323
311 311 310 318 321 325 325 321 307 299 309 306 308 310 309 309 309 311 311 311 309 305 307 310 310 313 313 309 312 310 307 300 300 301 300 308 305 307 313 315 316 317 321 325 327
309 308 315 322 325 325 323 313 301 304 305 310 309 310 307 309 309 309 310 308 312 311 308 305 303 310 312 310 308 309 308 302 297 298 302 309 303 308 316 318 319 323 326 327 328
306 324 323 328 328 325 317 305 305 307 308 307 309 306 307 308 308 309 309 308 311 312 306 305 304 312 311 312 312 308 306 311 305 307 302 305 309 313 317 318 321 323 324 325 326
313 319 324 326 329 323 312 304 308 309 309 309 305 307 306 307 306 308 308 311 311 313 316 310 304 310 311 313 313 311 313 305 306 298 297 303 305 306 313 317 320 321 322 324 325
315 316 322 329 326 317 308 309 309 311 312 308 307 306 307 306 307 308 308 311 312 312 314 312 309 307 311 308 307 309 308 308 308 306 299 297 302 318 319 321 320 320 321 322 323
317 311 321 327 314 315 311 312 302 310 312 310 310 310 309 307 307 306 306 311 313 314 309 315 312 305 306 312 313 311 309 308 302 301 305 304 304 320 319 319 319 320 320 322 323
311 312 320 322 309 311 313 310 310 309 311 310 309 312 312 309 305 308 308 312 313 313 313 315 309 303 305 309 313 309 310 311 311 311 304 300 302 320 319 319 320 320 321 321 321
311 307 315 315 316 313 310 309 307 310 309 311 311 313 312 310 312 309 308 310 312 314 312 315 311 307 301 304 309 307 308 310 309 303 304 304 306 311 315 317 317 318 319 320 320
314 312 313 311 310 311 311 309 307 306 309 311 309 310 310 309 309 309 310 311 311 308 312 313 307 309 309 308 308 306 304 304 303 305 301 304 304 307 313 314 315 317 317 317 317
309 310 316 309 311 308 303 307 306 307 308 307 308 308 309 309 310 309 310 310 310 312 311 313 305 305 301 304 304 301 302 303 302 302 302 303 303 316 317 316 315 315 314 312 314
315 314 309 305 309 306 307 308 306 308 309 310 310 308 307 310 312 313 314 313 313 309 308 308 306 302 298 303 301 297 302 304 304 306 307 303 308 310 308 309 312 312 311 310 312
Wind_Speed
19 19 19 19 19 18 18 18 17 16 14 13 12 10 9 9 9 10 11 3 7 15 6 14 16 13 14 14 10 12 14 0 6 9 12 7 8 4 5 7 2 9 9 15 16
20 20 19 19 20 19 18 18 17 17 14 12 11 10 8 7 12 14 8 11 12 14 15 15 14 13 13 13 8 13 9 4 11 6 8 9 6 6 8 7 8 10 11 15 16
20 19 19 20 21 20 20 19 18 17 15 12 11 10 8 8 12 9 7 12 13 14 18 15 11 12 16 12 14 14 15 8 5 8 6 4 4 2 2 6 6 9 14 15 16
20 21 22 22 22 21 21 20 19 18 16 12 10 9 6 11 2 8 8 9 12 17 18 15 12 15 15 14 15 12 12 6 2 4 3 4 4 3 5 3 7 12 17 17 16
21 22 22 22 22 22 21 21 20 19 15 11 8 6 7 11 7 12 9 9 14 15 15 14 15 14 16 12 7 12 14 6 4 7 5 4 8 9 10 7 3 15 17 17 15
20 22 22 23 23 22 22 21 19 17 11 8 7 6 8 10 9 15 16 15 13 14 12 13 11 11 13 6 10 5 7 11 10 10 6 9 10 5 11 8 8 13 15 16 16
21 22 22 23 23 23 22 21 19 15 8 5 9 7 10 4 3 14 15 15 9 11 7 9 7 6 6 11 13 8 14 15 15 14 6 4 13 11 7 12 12 12 12 15 16
22 22 23 24 24 24 22 20 17 9 3 5 9 11 2 5 4 12 14 9 5 3 10 5 6 13 8 8 8 15 17 16 17 16 10 7 18 18 14 10 12 12 12 13 16
22 23 24 25 26 25 22 21 11 5 5 6 9 9 6 4 10 12 12 10 8 7 4 3 11 14 9 13 15 16 14 18 20 10 10 9 19 11 8 11 10 13 12 13 15
23 24 25 25 26 25 24 11 6 4 8 10 8 8 8 13 10 12 8 5 10 9 10 12 9 11 14 14 14 15 19 15 14 6 9 16 16 17 9 10 10 13 13 12 14
24 25 26 26 27 25 16 5 7 8 13 11 9 3 9 9 10 12 10 12 10 12 14 14 11 13 16 15 15 14 14 14 13 7 6 13 17 19 12 9 9 15 13 15 14
24 25 26 28 27 27 10 6 7 7 10 8 7 6 2 10 11 14 14 12 12 14 16 9 12 14 3 6 7 11 13 13 14 16 16 14 18 19 13 17 10 14 10 10 15
24 25 27 29 28 14 7 6 7 6 9 11 6 9 13 13 12 15 17 16 12 16 12 14 2 5 4 9 10 12 13 11 12 14 9 15 19 19 18 18 14 9 11 14 14
24 25 25 31 9 10 2 3 8 3 8 14 11 7 8 12 8 12 17 13 11 12 11 11 12 7 8 12 10 13 16 9 7 10 13 13 12 14 21 17 12 12 13 14 16
25 25 23 13 13 6 7 8 8 5 8 14 9 8 16 17 13 11 14 14 15 8 5 3 6 9 12 12 10 6 6 5 8 12 13 15 9 10 8 5 8 13 4 15 14
28 25 24 6 9 9 8 8 6 9 4 8 9 11 17 14 9 12 13 10 9 12 11 15 4 5 8 9 5 12 6 13 13 13 13 15 13 11 3 8 5 10 13 9 8
29 29 17 9 5 9 8 7 8 11 3 9 12 13 17 13 11 12 15 16 13 11 15 17 14 12 8 12 10 11 9 10 11 12 13 5 6 9 12 8 9 9 10 8 7
32 31 4 9 8 8 7 9 10 4 3 4 4 8 12 16 13 12 14 15 16 11 9 7 16 12 4 12 11 18 12 11 13 11 10 11 6 8 9 10 10 10 9 8 9
34 5 6 3 3 5 8 11 7 1 6 4 8 11 13 10 6 12 13 11 5 5 8 4 6 10 4 3 7 5 11 9 12 14 12 15 15 15 18 13 12 10 7 7 8
10 9 3 2 3 7 8 14 3 4 5 7 13 10 13 16 13 12 12 4 5 2 6 4 10 5 8 6 12 11 11 8 10 14 15 13 13 9 14 12 10 9 8 8 8
8 6 7 3 5 8 10 5 2 3 6 5 9 3 11 1 8 13 4 9 1 3 4 3 5 11 8 10 10 6 12 9 9 10 13 13 7 12 10 9 7 7 8 9 10
6 6 5 3 9 7 9 0 4 6 4 4 6 8 6 3 9 5 3 8 0 4 7 6 6 9 14 16 11 10 15 15 12 12 12 14 10 12 8 9 4 6 8 9 10
7 8 4 5 7 8 4 5 4 3 2 3 5 4 2 6 5 6 2 5 1 1 6 2 5 8 14 17 11 10 5 5 5 6 13 14 13 11 7 7 7 7 7 9 10
7 5 6 6 4 9 1 8 5 1 4 6 5 4 5 8 7 3 6 5 2 8 4 3 7 10 12 17 14 10 11 12 13 11 14 14 18 16 4 8 6 8 10 10 11
6 2 6 2 4 6 3 4 9 6 6 5 5 9 6 7 7 9 2 10 6 6 4 4 10 12 14 16 15 17 18 18 18 18 19 18 19 18 13 9 7 7 12 13 14
6 5 1 9 6 7 4 7 10 5 6 7 9 3 4 8 6 7 3 3 9 7 6 5 8 9 15 16 19 20 17 18 19 18 21 19 13 12 10 11 11 13 15 17 17
3 5 6 2 7 9 9 9 5 2 4 7 7 5 7 7 6 8 7 6 7 6 7 7 7 9 14 15 13 12 16 13 8 8 7 8 12 12 13 15 15 14 17 19 14
Wind_Direction
345 342 337 331 328 325 321 319 321 319 316 311 305 301 297 294 284 225 240 62 149 164 207 186 215 210 228 239 236 248 269 321 69 53 109 141 129 147 93 129 57 60 47 119 136
343 340 335 329 326 322 322 319 322 316 313 306 299 294 289 286 258 242 126 110 141 164 202 189 199 200 216 226 213 242 273 39 42 50 47 100 336 129 207 154 145 114 96 119 153
338 337 333 329 327 324 323 320 319 315 310 302 296 286 278 268 265 92 155 134 167 197 220 211 209 213 234 230 215 225 268 66 85 33 345 41 205 168 220 230 137 152 138 148 158
336 339 336 329 327 325 322 320 318 317 309 300 291 276 272 245 315 82 141 152 173 205 237 220 233 219 241 224 231 247 242 280 3 131 268 308 349 233 232 314 53 122 148 156 167
337 336 332 329 327 325 320 319 321 317 305 289 273 249 235 222 78 126 143 156 180 213 214 209 219 228 241 236 218 240 270 247 233 244 258 330 267 252 265 182 149 124 153 163 172
335 334 332 329 326 324 322 322 323 316 303 270 240 202 244 244 104 140 166 173 209 211 213 222 232 245 289 243 244 310 281 282 262 259 234 244 264 207 228 172 166 154 171 173 175
335 333 330 324 325 324 323 322 323 316 307 240 203 233 260 35 83 155 172 195 211 230 202 232 285 230 255 245 238 272 259 251 241 235 249 271 260 205 235 163 178 178 184 178 182
333 330 327 326 325 322 323 322 317 312 323 195 199 251 294 76 130 169 180 188 196 224 273 180 241 277 254 302 252 245 248 251 239 219 212 231 272 200 169 171 192 188 194 192 186
331 329 327 327 323 323 324 320 299 278 256 199 223 234 163 135 187 163 188 184 182 201 210 216 239 240 203 244 240 230 250 235 247 178 256 200 258 126 143 182 227 186 210 201 194
331 331 328 326 324 323 322 289 326 236 218 226 262 242 188 193 159 169 198 205 186 188 187 215 225 229 225 233 241 236 222 233 276 170 193 255 232 273 253 209 232 243 209 202 208
331 330 328 326 324 321 326 223 209 190 222 299 143 326 119 101 152 183 179 187 194 199 211 209 226 223 241 223 267 327 306 311 307 267 278 275 284 275 266 260 216 248 234 200 210
330 329 329 325 322 314 282 2 39 340 294 212 244 255 306 174 181 182 185 207 192 209 221 181 235 262 268 333 272 263 265 263 266 272 268 266 265 262 251 266 237 263 266 258 189
330 329 329 322 318 291 326 31 323 309 256 168 195 200 179 210 202 173 195 225 203 225 194 251 43 27 282 217 247 241 264 263 272 298 251 263 261 263 260 257 258 274 269 269 282
329 327 330 324 293 338 261 327 318 345 263 150 191 147 172 207 230 185 194 215 211 238 220 242 255 199 230 237 227 260 217 238 272 262 264 215 268 251 219 229 204 239 242 242 235
326 326 326 324 319 286 4 321 330 237 261 150 118 108 165 206 119 191 188 228 262 210 280 173 220 225 237 248 222 283 12 271 275 274 274 262 237 274 96 196 254 242 258 26 7
322 324 328 194 210 277 302 304 248 229 235 139 138 175 176 211 196 136 195 235 252 266 203 274 142 266 250 219 198 277 263 247 243 253 252 236 259 259 276 167 182 79 61 37 30
319 317 312 301 326 338 301 247 234 251 117 148 176 174 190 187 176 180 192 199 224 212 213 210 222 202 229 245 204 233 250 253 229 227 233 154 247 289 328 42 30 42 76 66 39
320 313 194 257 304 301 254 231 254 352 95 57 207 196 229 179 201 198 183 207 223 272 283 238 178 176 154 240 239 209 239 263 302 298 308 133 242 269 86 81 87 79 72 44 31
313 242 244 157 286 276 261 230 251 10 34 248 183 223 211 174 257 211 221 234 163 195 276 302 178 119 230 272 269 270 235 271 290 275 267 275 276 244 139 117 108 99 84 52 32
312 281 229 290 212 261 246 257 329 354 303 237 252 210 210 198 205 209 178 58 126 302 285 27 290 206 125 250 238 259 309 272 225 251 260 256 275 36 126 116 110 96 71 53 18
263 266 96 268 222 243 243 238 165 116 311 280 262 276 266 145 231 228 191 105 1 155 265 338 250 265 170 232 288 191 230 225 256 301 303 297 298 73 71 65 85 77 44 29 9
287 266 80 251 243 232 264 128 16 259 221 243 291 299 293 211 250 267 268 62 226 291 236 74 302 271 282 313 309 292 287 289 280 274 272 286 285 103 115 112 65 47 33 10 9
290 290 136 248 254 215 124 247 273 241 252 260 236 251 140 248 254 267 102 67 302 324 15 70 237 266 247 237 180 250 196 288 300 282 264 280 283 121 148 124 57 16 7 347 351
278 266 167 215 286 297 301 238 200 239 261 272 306 249 230 230 211 178 195 149 245 86 347 323 271 266 283 303 324 288 243 253 282 265 279 273 292 300 131 54 1 351 338 333 335
245 51 4 272 156 291 280 342 255 185 248 247 220 253 237 250 215 220 176 140 191 127 218 309 266 275 280 288 288 288 283 279 271 270 268 282 292 296 1 15 0 346 340 335 331
303 334 330 284 292 266 174 240 256 131 266 193 265 141 276 250 307 343 186 228 271 142 259 154 277 280 275 274 268 265 270 269 264 266 265 267 279 30 360 342 349 346 337 332 318
52 244 270 282 220 248 247 232 248 9 168 319 323 290 237 34 12 358 333 315 309 275 272 249 280 277 272 283 289 274 268 273 272 303 349 294 10 10 349 345 343 323 319 305 320